DECAYED
Showing default

TUBIN, 48900 (Decayed)

Orbit data source: Space-Track

TUBIN, 48900 was a payload satellite owned by TUB (DE) in LEO that was launched on Wed, 30 Jun 2021 UTC via an FALCON 9 launch vehicle from the Air Force Eastern Test Range (AFETR). Payload-class satellites include a variety of spacecraft equipped with specific instruments for various scientific and technological missions. These include communications satellites like Starlink; space stations such as the ISS; scientific satellites like the Hubble; Earth observation satellites from companies like Planet Labs, Umbra, and HawkEye 360; GPS; miniature CubeSats for education and research; and military/defense satellites.

Not visible in the next 10 days
Identifier
48900, 2021-059X
Orbit
Decayed
Country
Flag of DEDE / GER
Related business
Manufacturer
TUB
Mission
Decayed Amateur Technology
Bus & Motor
TUBIX20, Unknown motor
Mass
17 kg wet, 17 kg dry
Launch date (UTC)
2021-06-30 (5 years ago)
Launch vehicle
FALCON 9
Launch site
Air Force Eastern Test Range (AFETR)
Object type
Payload
Rocket body
Debris
Shape & HBR
Oct Cyl, 1.0 m
Radar Cross Section
0.203 m², Medium (>0.1 m² and < 1m²)

Expand to show TLE details & history
Last TLE update: 3 months ago

TLE from 3 months ago
0 TUBIN
1 48900U 21059X   25349.78845228  .07315651  27141-5  56139-3 0  9990
2 48900  97.6553 178.8839 0007270 265.1302  94.9166 16.40417761249824
Epoch: 2025-12-15T18:55Z
TLE epoch observation values (Epoch: 2025-12-15T18:55:22.276Z)
Latitude
-0.00008°
Longitude
170.3591°
Altitude
168.347 km
Speed
7.805 km/s
True Right ascension
11h 55m 32s
True Declination
0° 00' 00"
Sunlit
Object was in daylight at epoch
Visualization orbit readout
Latitude
Unknown
Longitude
Unknown
Altitude
Unknown
Speed
Unknown
Apparent Right ascension
Unknown
Apparent Declination
Unknown
Sunlit
N/A
Visualization observer readout
Local Sidereal Time
15:13:24
Azimuth
Unknown
Elevation
Unknown
Doppler factor
Unknown
Orbital elements
Apogee altitude
166.264 km
Perigee altitude
156.756 km
Semi-major axis
6,539.647 km
Eccentricity
0.00073
Inclination
97.6553°
RAAN
178.8839°
Arg. of periapsis
265.1302°
True anomaly
94.9996°
Mean anomaly
94.9166°
Eccentric anomaly
94.9581°
Mean motion
4.10404 °/min
Orbital period
87.72 mins
BSTAR
0.00056139
Loading maneuver chart data...
Computing Atmospheric mass density...
Loading historical data...
Loading historical data...
Loading historical data...
Loading historical data...
Loading historical data...
Loading historical data...
Loading historical data...

Documentation

Showing up to 5 results
|